| time (UTC) | temp F | wind direction | speed MPH | gust MPH | rain 1hr in | rain 24hr in | rain mn in | humidity % | barometer mb |
| 20260507161915 | 52 | 0.0 | 0.0 | 0.00 | 0.01 | 0.00 | 77 | 1018.0 | |
| 20260507160918 | 52 | 0.0 | 1.0 | 0.00 | 0.01 | 0.00 | 76 | 1018.1 | |
| 20260507155917 | 52 | 158 | 1.0 | 2.0 | 0.00 | 0.01 | 0.00 | 76 | 1018.0 |
| 20260507154918 | 52 | 0.0 | 0.0 | 0.00 | 0.01 | 0.00 | 76 | 1018.0 | |
| 20260507153938 | 52 | 0.0 | 0.0 | 0.00 | 0.01 | 0.00 | 76 | 1017.8 | |
| 20260507152917 | 53 | 0.0 | 0.0 | 0.00 | 0.01 | 0.00 | 76 | 1017.7 | |
| 20260507151917 | 53 | 0.0 | 1.0 | 0.00 | 0.01 | 0.00 | 75 | 1017.7 | |
| 20260507150917 | 53 | 0.0 | 1.0 | 0.00 | 0.01 | 0.00 | 75 | 1017.6 | |
| 20260507145917 | 53 | 270 | 1.0 | 1.0 | 0.00 | 0.01 | 0.00 | 75 | 1017.5 |
| 20260507144917 | 53 | 0.0 | 1.0 | 0.00 | 0.01 | 0.00 | 75 | 1017.4 | |
| 20260507143917 | 53 | 0.0 | 1.0 | 0.00 | 0.01 | 0.00 | 75 | 1017.4 | |
| 20260507142915 | 53 | 0.0 | 1.0 | 0.00 | 0.01 | 0.00 | 76 | 1017.4 | |
| 20260507141958 | 53 | 0.0 | 1.0 | 0.00 | 0.01 | 0.00 | 76 | 1017.3 | |
| 20260507140917 | 52 | 270 | 1.0 | 1.0 | 0.00 | 0.01 | 0.00 | 77 | 1017.3 |
| 20260507135917 | 52 | 0.0 | 1.0 | 0.00 | 0.01 | 0.00 | 76 | 1017.2 | |
| 20260507134917 | 52 | 270 | 1.0 | 3.0 | 0.00 | 0.01 | 0.00 | 77 | 1017.2 |
| 20260507133917 | 52 | 338 | 1.0 | 2.0 | 0.00 | 0.01 | 0.00 | 77 | 1017.1 |
| 20260507132917 | 52 | 203 | 1.0 | 4.0 | 0.00 | 0.01 | 0.00 | 77 | 1017.1 |
| 20260507131917 | 51 | 0.0 | 1.0 | 0.00 | 0.01 | 0.00 | 76 | 1017.1 | |
| 20260507130917 | 51 | 0.0 | 1.0 | 0.00 | 0.01 | 0.00 | 77 | 1017.0 | |
| 20260507125917 | 51 | 248 | 1.0 | 2.0 | 0.00 | 0.01 | 0.00 | 78 | 1017.0 |
| 20260507124937 | 51 | 248 | 1.0 | 1.0 | 0.00 | 0.01 | 0.00 | 78 | 1017.0 |
| 20260507123917 | 51 | 135 | 1.0 | 2.0 | 0.00 | 0.01 | 0.00 | 79 | 1016.8 |
| 20260507122917 | 51 | 293 | 1.0 | 1.0 | 0.00 | 0.01 | 0.00 | 79 | 1016.8 |
| 20260507121917 | 50 | 180 | 1.0 | 3.0 | 0.00 | 0.01 | 0.00 | 79 | 1016.8 |
| 20260507120917 | 50 | 293 | 1.0 | 3.0 | 0.00 | 0.01 | 0.00 | 80 | 1016.8 |
| 20260507115917 | 50 | 338 | 1.0 | 2.0 | 0.00 | 0.01 | 0.00 | 80 | 1016.8 |
| 20260507114917 | 49 | 248 | 1.0 | 4.0 | 0.00 | 0.01 | 0.00 | 80 | 1016.7 |
| 20260507113917 | 49 | 270 | 2.0 | 5.0 | 0.00 | 0.01 | 0.00 | 80 | 1016.7 |
| 20260507112917 | 49 | 315 | 1.0 | 1.0 | 0.00 | 0.01 | 0.00 | 80 | 1016.5 |
| 20260507111917 | 49 | 0.0 | 1.0 | 0.00 | 0.01 | 0.00 | 80 | 1016.6 | |
| 20260507110917 | 50 | 293 | 2.0 | 4.0 | 0.00 | 0.01 | 0.00 | 81 | 1016.5 |
| 20260507105917 | 49 | 270 | 2.0 | 2.0 | 0.00 | 0.01 | 0.00 | 81 | 1016.6 |
| 20260507104937 | 49 | 270 | 1.0 | 2.0 | 0.00 | 0.01 | 0.00 | 81 | 1016.5 |
| 20260507103917 | 49 | 180 | 2.0 | 4.0 | 0.00 | 0.01 | 0.00 | 82 | 1016.5 |
| 20260507102917 | 49 | 23 | 1.0 | 2.0 | 0.00 | 0.01 | 0.00 | 82 | 1016.4 |
| 20260507101917 | 49 | 315 | 2.0 | 2.0 | 0.00 | 0.01 | 0.00 | 82 | 1016.3 |
| 20260507100917 | 49 | 315 | 1.0 | 2.0 | 0.00 | 0.01 | 0.00 | 81 | 1016.2 |
| 20260507095917 | 50 | 270 | 1.0 | 2.0 | 0.00 | 0.01 | 0.00 | 81 | 1016.1 |
| 20260507094917 | 50 | 293 | 3.0 | 5.0 | 0.00 | 0.01 | 0.00 | 81 | 1016.0 |
| 20260507093917 | 50 | 225 | 2.0 | 2.0 | 0.00 | 0.02 | 0.00 | 81 | 1015.8 |
| 20260507092917 | 49 | 45 | 1.0 | 2.0 | 0.00 | 0.02 | 0.00 | 82 | 1015.6 |
| 20260507091917 | 49 | 68 | 1.0 | 4.0 | 0.00 | 0.02 | 0.00 | 82 | 1015.5 |
| 20260507090917 | 49 | 338 | 1.0 | 2.0 | 0.00 | 0.03 | 0.00 | 82 | 1015.5 |
| 20260507085917 | 49 | 338 | 1.0 | 1.0 | 0.00 | 0.04 | 0.00 | 82 | 1015.4 |
| 20260507084917 | 49 | 180 | 1.0 | 2.0 | 0.00 | 0.05 | 0.00 | 82 | 1015.2 |
| 20260507083917 | 49 | 225 | 2.0 | 4.0 | 0.00 | 0.06 | 0.00 | 82 | 1015.1 |
| 20260507082916 | 48 | 45 | 2.0 | 5.0 | 0.00 | 0.06 | 0.00 | 82 | 1015.1 |
| 20260507081916 | 49 | 0.0 | 1.0 | 0.00 | 0.06 | 0.00 | 82 | 1014.9 | |
| 20260507080917 | 48 | 0.0 | 1.0 | 0.00 | 0.07 | 0.00 | 83 | 1014.9 | |
| 20260507075917 | 48 | 315 | 1.0 | 2.0 | 0.00 | 0.09 | 0.00 | 83 | 1014.8 |
| 20260507074917 | 48 | 203 | 1.0 | 4.0 | 0.00 | 0.09 | 0.00 | 83 | 1014.7 |
| 20260507073917 | 48 | 158 | 1.0 | 2.0 | 0.00 | 0.11 | 0.00 | 84 | 1014.6 |
| 20260507072916 | 48 | 293 | 1.0 | 2.0 | 0.00 | 0.13 | 0.00 | 84 | 1014.5 |
| 20260507071936 | 48 | 338 | 1.0 | 4.0 | 0.00 | 0.15 | 0.00 | 84 | 1014.4 |
| 20260507070916 | 47 | 315 | 1.0 | 1.0 | 0.00 | 0.17 | 0.00 | 85 | 1014.3 |
| 20260507065916 | 47 | 248 | 2.0 | 4.0 | 0.00 | 0.19 | 0.00 | 85 | 1014.4 |
| 20260507064916 | 47 | 0.0 | 2.0 | 0.00 | 0.20 | 0.00 | 85 | 1014.3 | |
| 20260507063916 | 47 | 0.0 | 1.0 | 0.00 | 0.20 | 0.00 | 85 | 1014.3 | |
| 20260507062917 | 47 | 293 | 1.0 | 2.0 | 0.00 | 0.20 | 0.00 | 86 | 1014.2 |
| 20260507061916 | 47 | 293 | 1.0 | 2.0 | 0.00 | 0.21 | 0.00 | 85 | 1014.0 |
| 20260507060916 | 47 | 0.0 | 1.0 | 0.00 | 0.21 | 0.00 | 85 | 1013.9 | |
| 20260507055917 | 47 | 315 | 1.0 | 1.0 | 0.00 | 0.21 | 0.00 | 86 | 1013.7 |
| 20260507054916 | 47 | 293 | 2.0 | 4.0 | 0.00 | 0.21 | 0.00 | 86 | 1013.6 |
| 20260507053916 | 47 | 45 | 1.0 | 3.0 | 0.00 | 0.22 | 0.00 | 86 | 1013.5 |
| 20260507052916 | 47 | 45 | 1.0 | 1.0 | 0.00 | 0.22 | 0.00 | 86 | 1013.4 |
| 20260507051916 | 47 | 248 | 1.0 | 4.0 | 0.00 | 0.23 | 0.00 | 86 | 1013.3 |
| 20260507050916 | 47 | 225 | 2.0 | 4.0 | 0.00 | 0.23 | 0.00 | 86 | 1013.3 |
| 20260507045916 | 47 | 293 | 1.0 | 2.0 | 0.00 | 0.24 | 0.00 | 86 | 1013.1 |
| 20260507044916 | 47 | 315 | 1.0 | 2.0 | 0.00 | 0.24 | 0.00 | 86 | 1013.0 |
| 20260507043916 | 47 | 225 | 1.0 | 2.0 | 0.00 | 0.24 | 0.00 | 86 | 1013.0 |
| 20260507042916 | 47 | 270 | 2.0 | 4.0 | 0.00 | 0.24 | 0.00 | 86 | 1012.8 |
| 20260507041916 | 47 | 135 | 1.0 | 3.0 | 0.00 | 0.25 | 0.00 | 86 | 1012.9 |
| 20260507040916 | 47 | 270 | 2.0 | 6.0 | 0.00 | 0.25 | 0.00 | 86 | 1012.8 |
| 20260507035916 | 47 | 338 | 1.0 | 1.0 | 0.00 | 0.28 | 0.00 | 86 | 1012.5 |
| 20260507034916 | 47 | 248 | 1.0 | 2.0 | 0.00 | 0.32 | 0.00 | 86 | 1012.5 |
| 20260507033916 | 46 | 248 | 2.0 | 4.0 | 0.00 | 0.38 | 0.00 | 86 | 1012.4 |
| 20260507032936 | 46 | 293 | 1.0 | 2.0 | 0.00 | 0.44 | 0.00 | 86 | 1012.3 |
| 20260507031916 | 46 | 0 | 1.0 | 2.0 | 0.00 | 0.47 | 0.00 | 86 | 1012.3 |
| 20260507030916 | 46 | 270 | 2.0 | 5.0 | 0.00 | 0.47 | 0.00 | 86 | 1012.4 |
| 20260507025916 | 46 | 315 | 1.0 | 2.0 | 0.00 | 0.47 | 0.00 | 86 | 1012.3 |
| 20260507024916 | 46 | 0.0 | 1.0 | 0.00 | 0.47 | 0.00 | 86 | 1012.1 | |
| 20260507023916 | 46 | 180 | 1.0 | 1.0 | 0.00 | 0.47 | 0.00 | 86 | 1012.3 |
| 20260507022916 | 46 | 0.0 | 1.0 | 0.00 | 0.47 | 0.00 | 86 | 1012.3 | |
| 20260507021916 | 47 | 270 | 1.0 | 2.0 | 0.00 | 0.48 | 0.00 | 86 | 1012.1 |
| 20260507020916 | 47 | 0.0 | 0.0 | 0.00 | 0.48 | 0.00 | 86 | 1012.0 | |
| 20260507015956 | 47 | 0 | 1.0 | 2.0 | 0.00 | 0.48 | 0.00 | 86 | 1011.8 |
| 20260507014916 | 47 | 338 | 1.0 | 2.0 | 0.00 | 0.48 | 0.00 | 86 | 1011.8 |
| 20260507013916 | 46 | 0.0 | 1.0 | 0.00 | 0.48 | 0.00 | 86 | 1011.8 | |
| 20260507012916 | 46 | 0.0 | 1.0 | 0.00 | 0.48 | 0.00 | 86 | 1011.8 | |
| 20260507011916 | 46 | 0.0 | 1.0 | 0.00 | 0.49 | 0.00 | 86 | 1011.7 | |
| 20260507010936 | 46 | 68 | 1.0 | 2.0 | 0.00 | 0.49 | 0.00 | 86 | 1011.7 |
| 20260507005916 | 46 | 0.0 | 1.0 | 0.00 | 0.50 | 0.00 | 86 | 1011.6 | |
| 20260507004936 | 46 | 270 | 2.0 | 2.0 | 0.00 | 0.50 | 0.00 | 86 | 1011.5 |
| 20260507003916 | 47 | 270 | 2.0 | 4.0 | 0.00 | 0.50 | 0.00 | 86 | 1011.1 |
| 20260507002916 | 47 | 0.0 | 0.0 | 0.00 | 0.50 | 0.00 | 86 | 1011.0 | |
| 20260507001916 | 47 | 270 | 1.0 | 1.0 | 0.00 | 0.50 | 0.00 | 86 | 1011.1 |
| 20260507000916 | 47 | 0.0 | 1.0 | 0.00 | 0.51 | 0.00 | 86 | 1011.1 | |
| 20260506235916 | 47 | 293 | 1.0 | 3.0 | 0.00 | 0.51 | 0.00 | 86 | 1011.2 |
| 20260506234916 | 47 | 45 | 2.0 | 5.0 | 0.00 | 0.51 | 0.00 | 86 | 1011.0 |
| 20260506233916 | 47 | 0.0 | 0.0 | 0.00 | 0.51 | 0.00 | 86 | 1011.0 | |
| 20260506232916 | 48 | 180 | 1.0 | 2.0 | 0.00 | 0.51 | 0.00 | 86 | 1011.1 |
| 20260506231915 | 48 | 338 | 1.0 | 2.0 | 0.00 | 0.51 | 0.00 | 86 | 1011.1 |
| 20260506230915 | 48 | 338 | 2.0 | 5.0 | 0.00 | 0.51 | 0.00 | 85 | 1011.2 |
| 20260506225936 | 49 | 315 | 3.0 | 5.0 | 0.00 | 0.52 | 0.00 | 85 | 1011.0 |
| 20260506224915 | 50 | 338 | 1.0 | 2.0 | 0.00 | 0.52 | 0.00 | 85 | 1010.8 |
| 20260506223916 | 50 | 338 | 2.0 | 3.0 | 0.00 | 0.52 | 0.00 | 85 | 1010.7 |
| 20260506222936 | 51 | 270 | 1.0 | 1.0 | 0.00 | 0.52 | 0.00 | 85 | 1010.6 |
| 20260506221916 | 51 | 338 | 2.0 | 3.0 | 0.00 | 0.52 | 0.00 | 84 | 1010.5 |
| 20260506220915 | 51 | 0 | 1.0 | 1.0 | 0.00 | 0.52 | 0.00 | 85 | 1010.4 |
| 20260506215916 | 52 | 135 | 3.0 | 6.0 | 0.00 | 0.52 | 0.52 | 85 | 1010.2 |
| 20260506214916 | 52 | 293 | 1.0 | 2.0 | 0.00 | 0.52 | 0.52 | 85 | 1010.3 |
| 20260506213916 | 52 | 0.0 | 1.0 | 0.00 | 0.52 | 0.52 | 85 | 1010.3 | |
| 20260506212916 | 52 | 270 | 1.0 | 2.0 | 0.00 | 0.52 | 0.52 | 85 | 1010.4 |
| 20260506211916 | 52 | 90 | 1.0 | 2.0 | 0.00 | 0.52 | 0.52 | 86 | 1010.3 |
| 20260506210916 | 52 | 270 | 4.0 | 6.0 | 0.00 | 0.52 | 0.52 | 86 | 1010.4 |
| 20260506210008 | 52 | 0.0 | 0.0 | 0.00 | 0.52 | 0.52 | 86 | 1010.2 | |
| 20260506205832 | 52 | 0.0 | 0.0 | 0.00 | 0.52 | 0.52 | 86 | 1010.2 | |
| 20260506205716 | 52 | 315 | 1.0 | 1.0 | 0.00 | 0.52 | 0.52 | 86 | 1010.2 |
| 20260506204716 | 52 | 293 | 1.0 | 1.0 | 0.00 | 0.52 | 0.52 | 86 | 1010.1 |
| 20260506203716 | 52 | 293 | 1.0 | 2.0 | 0.00 | 0.52 | 0.52 | 86 | 1010.1 |
| 20260506202812 | 52 | 0.0 | 0.0 | 0.00 | 0.52 | 0.52 | 86 | 1010.1 | |
| 20260506202650 | 52 | 0 | 2.0 | 2.0 | 0.00 | 0.52 | 0.52 | 86 | 1010.1 |
| 20260506202509 | 52 | 0.0 | 0.0 | 0.00 | 0.52 | 0.52 | 86 | 1010.1 | |
| 20260506202335 | 52 | 0.0 | 0.0 | 0.00 | 0.52 | 0.52 | 86 | 1010.1 | |
| 20260506202016 | 52 | 315 | 1.0 | 2.0 | 0.00 | 0.52 | 0.52 | 87 | 1010.0 |
| 20260506201112 | 52 | 270 | 4.0 | 6.0 | 0.00 | 0.52 | 0.52 | 87 | 1010.1 |
| 20260506200909 | 52 | 0.0 | 0.0 | 0.00 | 0.52 | 0.52 | 87 | 1010.0 | |
| 20260506200733 | 52 | 0.0 | 0.0 | 0.00 | 0.52 | 0.52 | 87 | 1010.0 | |
| 20260506200636 | 52 | 0.0 | 0.0 | 0.00 | 0.52 | 0.52 | 87 | 1010.0 | |
| 20260506200433 | 52 | 293 | 3.0 | 3.0 | 0.00 | 0.52 | 0.52 | 87 | 1009.9 |
| 20260506195716 | 53 | 270 | 2.0 | 2.0 | 0.00 | 0.52 | 0.52 | 87 | 1009.9 |
| 20260506194716 | 53 | 270 | 1.0 | 1.0 | 0.00 | 0.52 | 0.52 | 87 | 1009.9 |
| 20260506193716 | 53 | 225 | 1.0 | 2.0 | 0.00 | 0.52 | 0.52 | 87 | 1009.8 |
| 20260506192736 | 53 | 0.0 | 1.0 | 0.00 | 0.52 | 0.52 | 87 | 1009.6 | |
| 20260506191716 | 53 | 293 | 1.0 | 2.0 | 0.00 | 0.52 | 0.52 | 87 | 1009.7 |
| 20260506190736 | 53 | 0.0 | 0.0 | 0.00 | 0.52 | 0.52 | 87 | 1009.7 | |
| 20260506185822 | 53 | 338 | 3.0 | 4.0 | 0.00 | 0.52 | 0.52 | 87 | 1009.6 |
| 20260506184916 | 53 | 293 | 3.0 | 4.0 | 0.00 | 0.52 | 0.52 | 87 | 1009.4 |
| 20260506183915 | 53 | 0.0 | 1.0 | 0.00 | 0.52 | 0.52 | 87 | 1009.5 | |
| 20260506182916 | 53 | 338 | 1.0 | 3.0 | 0.00 | 0.52 | 0.52 | 87 | 1009.5 |
| 20260506181916 | 53 | 0.0 | 1.0 | 0.01 | 0.52 | 0.52 | 87 | 1009.3 | |
| 20260506180915 | 53 | 225 | 1.0 | 1.0 | 0.01 | 0.52 | 0.52 | 87 | 1009.2 |
| 20260506175916 | 54 | 0.0 | 1.0 | 0.01 | 0.52 | 0.52 | 87 | 1009.0 | |
| 20260506174916 | 54 | 293 | 1.0 | 2.0 | 0.01 | 0.52 | 0.52 | 87 | 1009.0 |
| 20260506173936 | 54 | 0.0 | 1.0 | 0.01 | 0.52 | 0.52 | 87 | 1008.8 | |
| 20260506172915 | 54 | 293 | 2.0 | 4.0 | 0.01 | 0.52 | 0.52 | 87 | 1008.8 |
| 20260506171936 | 55 | 338 | 2.0 | 3.0 | 0.00 | 0.51 | 0.51 | 87 | 1008.8 |
| 20260506170916 | 55 | 270 | 2.0 | 4.0 | 0.00 | 0.51 | 0.51 | 86 | 1008.9 |
| 20260506165915 | 56 | 0.0 | 1.0 | 0.00 | 0.51 | 0.51 | 87 | 1008.8 | |
| 20260506164915 | 56 | 293 | 1.0 | 1.0 | 0.00 | 0.51 | 0.51 | 87 | 1008.7 |
| 20260506163916 | 56 | 315 | 3.0 | 5.0 | 0.00 | 0.51 | 0.51 | 86 | 1008.6 |
| 20260506162917 | 56 | 248 | 1.0 | 3.0 | 0.00 | 0.51 | 0.51 | 87 | 1008.5 |